Location: Stoke Bliss
(52.2667°N, 2.5167°W)
Time: 21:46:04
(UTC+00:00)

Cosmos 1470 Rocket - Pass Details

Date: 03 March 2021
Orbit: 603 x 634 km, 82.5° (Epoch: 15 April)

Event Time Altitude Azimuth Distance (km) Brightness Sun altitude
Rises 18:36:31 0° 168° (SSE) 2,919 6.9 -7.4°
Reaches altitude 10° 18:38:50 10° 162° (SSE) 2,013 6.0 -7.7°
Maximum altitude 18:43:01 41° 92° (E) 927 4.0 -8.4°
Drops below altitude 10° 18:47:12 10° 23° (NNE) 2,016 6.0 -9.0°
Sets 18:49:32 0° 17° (NNE) 2,923 6.9 -9.4°
